Radiation Dose measured at exhaust stack monitor of Fukushima Daiichi Nuclear Power Station
Date,Time,Unit 5 6 shared exhaust cylinders,Wind Direction,Wind Velocity(m/s)
2021/07/06,00:00,3.9,west,5.8
2021/07/06,00:10,3.7,west,6.5
2021/07/06,00:20,4.0,west,7.1
2021/07/06,00:30,4.0,west,7.4
2021/07/06,00:40,4.0,west,8.4
2021/07/06,00:50,4.0,west,8.6
2021/07/06,01:00,3.6,west,10.5
2021/07/06,01:10,3.8,west,11.0
2021/07/06,01:20,3.8,west-northwest,11.9
2021/07/06,01:30,4.0,west,11.6
2021/07/06,01:40,3.8,west,9.3
2021/07/06,01:50,3.9,west-northwest,9.6
2021/07/06,02:00,3.8,west-northwest,7.8
2021/07/06,02:10,3.8,west,8.9
2021/07/06,02:20,3.8,west-northwest,8.7
2021/07/06,02:30,3.8,west-northwest,9.6
2021/07/06,02:40,3.8,west,9.2
2021/07/06,02:50,3.8,west,8.3
2021/07/06,03:00,4.0,west,7.3
2021/07/06,03:10,3.9,west,5.9
2021/07/06,03:20,3.9,west,6.8
2021/07/06,03:30,4.1,west,6.7
2021/07/06,03:40,3.8,west,6.8
2021/07/06,03:50,3.9,west,6.1
2021/07/06,04:00,3.9,west,6.8
2021/07/06,04:10,3.8,west,6.7
2021/07/06,04:20,3.9,west,6.1
2021/07/06,04:30,3.8,west,6.2
2021/07/06,04:40,4.0,west,6.0
2021/07/06,04:50,3.8,west-southwest,1.5
2021/07/06,05:00,3.9,-,CALM
2021/07/06,05:10,3.8,east-southeast,1.7
2021/07/06,05:20,3.8,east,2.3
2021/07/06,05:30,3.8,east-northeast,2.3
2021/07/06,05:40,3.9,north-northwest,1.5
2021/07/06,05:50,3.9,west-northwest,1.7
2021/07/06,06:00,4.0,west-northwest,1.7
2021/07/06,06:10,3.7,northwest,2.8
2021/07/06,06:20,3.7,northwest,3.3
2021/07/06,06:30,3.8,west-northwest,5.3
2021/07/06,06:40,3.9,northwest,6.7
2021/07/06,06:50,3.9,northwest,3.9
2021/07/06,07:00,3.8,northwest,4.1
2021/07/06,07:10,3.9,north,3.0
2021/07/06,07:20,4.0,north-northwest,2.8
2021/07/06,07:30,3.9,northeast,2.6
2021/07/06,07:40,3.7,east-northeast,3.4
2021/07/06,07:50,3.9,east,1.9
2021/07/06,08:00,3.8,east-southeast,1.9
2021/07/06,08:10,3.9,east-northeast,1.2
2021/07/06,08:20,3.8,east-northeast,1.7
2021/07/06,08:30,3.9,east-northeast,1.7
2021/07/06,08:40,4.0,east-northeast,1.7
2021/07/06,08:50,3.9,east,3.2
2021/07/06,09:00,3.9,east,3.0
2021/07/06,09:10,3.9,southeast,2.6
2021/07/06,09:20,3.9,southeast,2.3
2021/07/06,09:30,3.8,southeast,3.1
2021/07/06,09:40,4.0,southeast,2.6
2021/07/06,09:50,3.8,east-southeast,3.6
2021/07/06,10:00,3.7,east-southeast,2.6
2021/07/06,10:10,3.7,east-southeast,2.6
2021/07/06,10:20,4.0,east-southeast,4.1
2021/07/06,10:30,3.9,east-southeast,3.4
2021/07/06,10:40,4.0,east-southeast,1.5
2021/07/06,10:50,3.8,north-northwest,1.4
2021/07/06,11:00,3.7,northwest,1.5
2021/07/06,11:10,3.9,north-northeast,1.9
2021/07/06,11:20,3.9,northeast,1.5
2021/07/06,11:30,3.9,east-northeast,3.4
2021/07/06,11:40,3.9,east,3.0
2021/07/06,11:50,3.8,east,2.6
2021/07/06,12:00,4.0,east-northeast,3.0
2021/07/06,12:10,3.9,east,3.0
2021/07/06,12:20,3.8,north-northeast,0.9
2021/07/06,12:30,3.6,-,CALM
2021/07/06,12:40,4.0,-,CALM
2021/07/06,12:50,3.8,north-northwest,0.9
2021/07/06,13:00,4.1,northeast,2.9
2021/07/06,13:10,3.8,northeast,3.3
2021/07/06,13:20,4.1,northeast,2.5
2021/07/06,13:30,3.9,east-northeast,2.5
2021/07/06,13:40,4.0,east-northeast,2.5
2021/07/06,13:50,3.8,east,2.9
2021/07/06,14:00,3.8,east,2.0
2021/07/06,14:10,3.9,northeast,1.5
2021/07/06,14:20,3.8,northeast,1.2
2021/07/06,14:30,3.9,northeast,0.6
2021/07/06,14:40,3.8,northwest,0.6
2021/07/06,14:50,4.0,west,1.5
2021/07/06,15:00,3.9,northwest,1.7
2021/07/06,15:10,4.0,north-northwest,2.3
2021/07/06,15:20,3.8,north-northwest,2.6
2021/07/06,15:30,4.0,northwest,3.0
2021/07/06,15:40,3.9,northwest,3.1
2021/07/06,15:50,4.0,north-northwest,3.6
2021/07/06,16:00,3.8,northwest,3.4
2021/07/06,16:10,3.9,west-northwest,2.5
2021/07/06,16:20,3.9,northwest,2.6
2021/07/06,16:30,4.0,north,3.1
2021/07/06,16:40,3.8,north,2.8
2021/07/06,16:50,3.9,north-northwest,2.8
2021/07/06,17:00,3.9,north-northwest,3.7
2021/07/06,17:10,4.0,north-northwest,2.6
2021/07/06,17:20,3.8,northwest,3.2
2021/07/06,17:30,3.8,northwest,1.5
2021/07/06,17:40,4.0,west-northwest,0.6
2021/07/06,17:50,3.9,west-northwest,2.0
2021/07/06,18:00,3.9,west-northwest,2.0
2021/07/06,18:10,4.0,west-northwest,1.2
2021/07/06,18:20,3.9,west,0.9
2021/07/06,18:30,3.9,west-northwest,1.5
2021/07/06,18:40,3.9,-,CALM
2021/07/06,18:50,3.8,west-northwest,1.2
2021/07/06,19:00,3.8,west,2.0
2021/07/06,19:10,4.1,west-northwest,0.9
2021/07/06,19:20,3.9,west,1.7
2021/07/06,19:30,3.9,south-southwest,1.1
2021/07/06,19:40,3.9,southwest,1.1
2021/07/06,19:50,3.9,west-southwest,0.9
2021/07/06,20:00,4.0,west,0.9
2021/07/06,20:10,3.9,south-southwest,0.8
2021/07/06,20:20,3.9,south,1.5
2021/07/06,20:30,3.9,southwest,1.5
2021/07/06,20:40,3.8,southwest,2.3
2021/07/06,20:50,3.9,southwest,1.1
2021/07/06,21:00,3.9,south-southwest,2.0
2021/07/06,21:10,4.2,southwest,2.0
2021/07/06,21:20,3.7,west-southwest,1.7
2021/07/06,21:30,3.9,west-southwest,1.7
2021/07/06,21:40,3.9,southwest,2.0
2021/07/06,21:50,3.9,south-southeast,1.5
2021/07/06,22:00,3.9,south-southwest,2.3
2021/07/06,22:10,3.9,south-southwest,4.3
2021/07/06,22:20,3.9,southwest,5.7
2021/07/06,22:30,3.8,west-southwest,5.5
2021/07/06,22:40,4.0,west-southwest,5.2
2021/07/06,22:50,3.8,southwest,3.4
2021/07/06,23:00,4.1,southwest,4.1
2021/07/06,23:10,3.9,southwest,5.3
2021/07/06,23:20,3.9,southwest,5.0
2021/07/06,23:30,3.8,southwest,4.2
2021/07/06,23:40,3.9,south-southwest,3.1
2021/07/06,23:50,3.8,south-southwest,2.8
